loading
|
Showing default

NIMBUS 2, 2173

Orbit data source: Space-Track

NIMBUS 2, 2173 is a payload satellite owned by GSFC (US) in LEO that was launched on Sun, 15 May 1966 UTC via a THOR SLV-2A AGENA B launch vehicle from the Air Force Western Test Range (AFWTR). Payloads include a variety of satellites, spacecraft, and rockets equipped with specific instruments for various scientific and technological missions. These include communications satellites like Starlink; space stations such as the ISS; scientific satellites like the Hubble; Earth observation satellites from companies like Planet Labs, Umbra, and HawkEye 360; GPS; miniature CubeSats for education and research; and military/defense satellites.

Loading next visibility...
Next conjunction unknown
Loading greatness...
NIMBUS 2 details
Identifier
2173, 1966-040A
Orbit
LEO
Last TLE update1 day ago
Origin
Flag of USGSFC (US)
ManufacturerGE/MSVD
MissionNon-operational Civil Weather
Bus & MotorNIMBUS, Unknown motor
Mass414 kg wet, 414 kg dry
Launch date (UTC)
1966-05-15 (58 years ago)
Launch vehicle
THOR SLV-2A AGENA B
Launch site
Air Force Western Test Range (AFWTR)
Object type
Payload
Rocket body
Debris
Shape & HBRCone + 2 Pan, 3.35 m
Radar Cross Section2.947 m², Large (>1 m²)

Expand to show TLE details & history

TLE from 1 day ago
0 NIMBUS 2
1 02173U 66040A   24285.75549022  .00000073  00000-0  24269-3 0  9990
2 02173 100.5821 115.1000 0054835 292.7700  77.6676 13.33666711841854
Epoch: 2024-10-11T18:07Z
Definitive object data (Epoch: 2024-10-11T18:07:54.355Z)
Latitude10.81565°
Longitude-179.73254°
Altitude1,126.363 km
Speed7.294 km/s
True Right ascension07h 32m 15s
True Declination10° 45' 20"
Sunlit
Object was in daylight at TLE epoch
Predictive object data (real-time)
Latitude-54.9294°
Longitude-11.99559°
Altitude1,129.925 km
Speed7.299 km/s
Apparent Right ascension22h 10m 57s
Apparent Declination-58° 44' 07"
Sunlit
Object is in daylight
Predictive observer data (real-time)
Local Sidereal Time13:06:57
Azimuth139.089° SSE
Elevation-56.596°
Doppler factor1
Orbital elements
Apogee1,171.507 km
Perigee1,089.162 km
Semi-major axis7,508.472 km
Eccentricity0.0054835
Inclination100.5821°
RAAN115.1°
Arg. of periapsis292.77°
True anomaly78.28235°
Mean anomaly77.6676°
Eccentric anomaly77.97489°
Mean motion3.33592 °/min
BSTAR0.00024269
Period107.92 mins
No data available

NIMBUS 2 Visibility forecast

Observer location: 39.9160978°, -105.1181434

Span
Click to sort rows by Start time (UTC) header in descending order
Start Az.
Max El. time (UTC)
Max El. Az.
Max El.
End time (UTC)
End Az.
13 mins2024-10-13 01:17:07.054Z25.368° NE2024-10-13 01:23:07.054Z88.508° E39.584°2024-10-13 01:30:07.054Z179.446° S
9 mins2024-10-13 03:05:07.054Z346.387° N2024-10-13 03:09:07.054Z303.297° NW25.365°2024-10-13 03:14:07.054Z249.623° W
10 mins2024-10-13 11:38:07.054Z118.646° SE2024-10-13 11:43:07.054Z55.602° ENE30.212°2024-10-13 11:48:07.054Z3.583° NNE
11 mins2024-10-13 13:24:07.054Z198.183° SSW2024-10-13 13:29:07.054Z266.95° W33.916°2024-10-13 13:35:07.054Z329.604° NNW